Regional Weather Roundup
Issued by NWS

Home | Current Version | Previous Version | Text Only | Print | Product List | Glossary On
Versions: 1 2 3 4 5 6 7 8 9 10 11 12 13 14 15 16 17 18 19 20 21 22 23 24 25 26 27 28 29 30 31 32 33 34 35 36 37 38 39 40 41 42 43 44 45 46 47 48 49 50
000
ASUS43 KFSD 261110
RWRSD

WEATHER ROUNDUP FOR SOUTH DAKOTA
NATIONAL WEATHER SERVICE SIOUX FALLS SD
500 AM CST FRI DEC 26 2014

NOTE: "FAIR" INDICATES FEW OR NO CLOUDS BELOW 12,000 FEET WITH NO
SIGNIFICANT WEATHER AND/OR OBSTRUCTIONS TO VISIBILITY.


SDZ001>005-009-010-012>017-261200-
NORTHWEST AND NORTH CENTRAL SOUTH DAKOTA

CITY           SKY/WX    TMP DP  RH WIND       PRES   REMARKS
BUFFALO          N/A     19  13  77 N9        29.97S WCI   8
FAITH            N/A     21  14  74 NW15      30.05R WCI   8
MOBRIDGE       CLOUDY    24  20  84 N8        30.04R WCI  15
$$

SDZ012>016-024>037-041>051-057-063-072>074-261200-
SOUTHWEST AND SOUTH CENTRAL SOUTH DAKOTA

CITY           SKY/WX    TMP DP  RH WIND       PRES   REMARKS
RAPID CTY ARPT CLOUDY    20  16  84 N12       30.03S WCI   8
PIERRE         CLOUDY    25  21  85 N12       30.06R WCI  14
CUSTER         CLOUDY    14  12  92 CALM      29.88R FOG
ELLSWORTH AFB  CLOUDY    20  17  89 N7        30.03R WCI  11
PHILIP         CLOUDY    24  17  74 N9        30.07S WCI  14
PINE RIDGE     LGT SNOW  20  16  84 N8        30.01S FOG     WCI  10
SPEARFISH      CLOUDY    18  16  93 NW6       30.01S WCI   9
WINNER         LGT SNOW  26  23  88 N10       30.03S FOG     WCI  16
$$

SDZ004>011-016>023-039-040-261200-
NORTHEAST SOUTH DAKOTA

CITY           SKY/WX    TMP DP  RH WIND       PRES   REMARKS
ABERDEEN       CLOUDY    25  21  85 N17       30.05R WCI  12
WATERTOWN      LGT SNOW  23  20  88 N16       29.97R FOG     WCI  10
SISSETON         N/A     24  22  91 N20       30.02R WCI  10
$$

SDZ017-020-022-023-036>040-048>070-261200-
SOUTHEAST SOUTH DAKOTA

CITY           SKY/WX    TMP DP  RH WIND       PRES   REMARKS
SIOUX FALLS    CLOUDY    27  24  89 N15       29.94S WCI  15
HURON          LGT SNOW  25  22  88 N14       30.03R FOG     WCI  13
CHAMBERLAIN    LGT SNOW  25  23  91 N10       30.03R WCI  15
MITCHELL       CLOUDY    27  24  89 N14       30.02R WCI  16
YANKTON        CLOUDY    28  25  86 NW18      29.98R WCI  16
$$

ABBREVIATIONS USED IN REMARKS
   TC - TEMPERATURE IN CELSIUS
  WCI - WIND CHILL INDEX
   HX - HEAT INDEX
  VSB - VISIBILITY




USA.gov is the U.S. government's official web portal to all federal, state and local government web resources and services.